Flag for Norway Weather past 2 weeks in Sarpsborg, Norway

Now
66 °F

Passing clouds.


Feels Like: 66 °F
Forecast: 63 / 76 °F
Wind: 1 mph from North

Location: Rygge

Current Time: Jul 28, 2014 at 8:57:43 AM

Latest Report: Jul 28, 2014 at 7:50 AM


Visibility: N/A

Pressure: 29.95 "Hg

Humidity: 88%

Dew point: 63 °F

Location of SarpsborgLocation

Historic Weather in Sarpsborg — Graph

°F

Sarpsborg temperature yesterday

Maximum temperature yesterday: 81 °F (at 3:50 PM)
Minimum temperature yesterday: 64 °F (at 2:50 AM)
Average temperature yesterday: 71 °F

Past Weeks' High & Low Weather Summary

 TemperatureHumidityPressure
High91 °F (Jul 23, 5:20 PM)100% (Jul 17, 2:20 AM)30.30 "Hg (Jul 17, 2:20 AM)
Low54 °F (Jul 19, 4:50 AM)26% (Jul 23, 5:50 PM)29.62 "Hg (Jul 13, 8:50 PM)
Average71 °F65%30.04 "Hg
* Reported Jul 13 7:20 AM — Jul 28 7:50 AM, Sarpsborg, Weather by CustomWeather, © 2014

Note: Actual official high and low records may vary slightly from our data, if they occured in-between our weather recording intervals... More about our weather records

Advertising

Sarpsborg weather history for previous 24 hours

 ConditionsComfort  
Time TempWeatherWind HumidityBarometerVisibility
7:50 AM
Jul 28
66 °FPassing clouds.1 mph88%29.95 "HgN/A
7:20 AM63 °FPassing clouds.2 mph94%29.95 "HgN/A
6:50 AM63 °FScattered clouds.2 mph94%29.95 "Hg5 mi
6:20 AM63 °FScattered clouds.1 mph94%29.95 "Hg5 mi
5:50 AM63 °FPartly cloudy.5 mph94%29.95 "Hg3 mi
5:20 AM61 °FPartly cloudy.2 mph100%29.95 "Hg3 mi
4:50 AM61 °FFog.3 mph100%29.95 "Hg3 mi
4:20 AM61 °FCool.2 mph100%29.95 "Hg5 mi
3:50 AM63 °FMild.5 mph94%29.95 "Hg6 mi
3:20 AM63 °FMild.5 mph100%29.92 "HgN/A
2:50 AM63 °FPassing clouds.3 mph94%29.95 "HgN/A
2:20 AM63 °FPassing clouds.2 mph94%29.95 "HgN/A
1:50 AM64 °FPassing clouds.2 mph94%29.95 "HgN/A
1:20 AM64 °FPassing clouds.3 mph88%29.95 "HgN/A
12:50 AM64 °FPassing clouds.5 mph88%29.95 "HgN/A
12:20 AM64 °FPartly cloudy.6 mph94%29.95 "HgN/A
11:50 PM
Jul 27
64 °FPassing clouds.5 mph88%29.95 "HgN/A
11:20 PM64 °FThundershowers. Passing clouds.3 mph88%29.95 "HgN/A
10:50 PM66 °FPassing clouds.5 mph83%29.95 "HgN/A
10:20 PM66 °FPassing clouds.7 mph83%29.95 "HgN/A
9:50 PM66 °FPassing clouds.6 mph83%29.95 "HgN/A
9:20 PM68 °FPassing clouds.9 mph78%29.92 "HgN/A
8:50 PM70 °FPassing clouds.13 mph69%29.92 "HgN/A
8:20 PM72 °FScattered clouds.15 mph69%29.92 "HgN/A
7:50 PM73 °FPassing clouds.7 mph69%29.92 "HgN/A
7:20 PM73 °FPassing clouds.8 mph65%29.92 "HgN/A
6:50 PM72 °FPassing clouds.10 mph73%29.92 "HgN/A
6:20 PM72 °FMostly cloudy.13 mph69%29.92 "HgN/A
5:50 PM73 °FThundershowers. Partly sunny.21 mph65%29.92 "HgN/A
5:20 PM81 °FThundershowers. Scattered clouds.9 mph48%29.92 "HgN/A
4:50 PM81 °FThundershowers. Scattered clouds.7 mph48%29.92 "HgN/A
4:20 PM79 °FScattered showers. Scattered clouds.7 mph51%29.92 "HgN/A
3:50 PM81 °FPassing clouds.5 mph51%29.92 "HgN/A
3:20 PM79 °FScattered clouds.7 mph54%29.92 "HgN/A
2:50 PM79 °FScattered clouds.3 mph58%29.95 "HgN/A
2:20 PM79 °FScattered clouds.5 mph58%29.95 "HgN/A
1:50 PM79 °FScattered clouds.5 mph58%29.95 "HgN/A
1:20 PM73 °FThundershowers. Scattered clouds.7 mph69%29.98 "HgN/A
12:50 PM75 °FThundershowers. Scattered clouds.2 mph65%29.98 "HgN/A
12:20 PM77 °FThundershowers. Scattered clouds.7 mph61%29.95 "HgN/A
11:50 AM75 °FPartly sunny.7 mph69%29.98 "HgN/A
11:20 AM75 °FBroken clouds.5 mph69%29.98 "HgN/A
10:50 AM75 °FBroken clouds.2 mph65%29.98 "HgN/A
10:20 AM73 °FSunny.2 mph69%29.98 "Hg10 mi
9:50 AM72 °FSunny.2 mph78%29.98 "Hg10 mi
9:20 AM70 °FSunny.3 mph83%29.98 "Hg10 mi
8:50 AM68 °FPassing clouds.3 mph83%30.01 "HgN/A
8:20 AM68 °FSunny.1 mph88%30.01 "Hg10 mi
Weather by CustomWeather, © 2014

See weather overviewHow to use our weather pages